EHI
0 1 2 1 0 0 0 0 0 0 1 2 2 2 2 3 2 1 0 0 0 1 2 3 4 4 3 2 1 0 0 1 2 2 3 3 3 2 1 0 0 1 2
0 1 2 2 1 0 0 0 0 0 0 1 1 2 2 2 2 1 1 1 1 0 1 2 4 4 3 2 2 1 0 0 1 2 2 2 3 2 1 0 0 1 2
1 1 1 1 1 0 0 0 0 0 0 0 0 1 1 0 1 2 2 2 2 1 0 1 2 2 2 2 2 1 0 0 1 1 1 1 1 2 2 1 1 2 3
1 1 0 0 0 0 0 0 0 0 0 0 0 0 0 0 1 2 2 2 2 2 1 1 1 0 0 1 2 2 1 0 1 1 0 0 0 1 2 1 1 2 3
1 0 0 0 0 0 0 0 0 0 0 0 0 0 0 0 0 1 1 1 1 1 1 1 0 0 0 0 1 2 1 0 0 0 0 0 0 1 1 1 1 3 3
0 0 0 0 0 0 0 0 0 0 0 0 0 0 0 0 0 0 0 0 0 0 1 1 1 0 0 0 1 1 1 0 0 0 0 0 0 0 1 1 2 3 3
0 0 0 1 1 0 0 0 0 0 0 0 0 0 0 0 0 0 0 0 0 0 0 0 1 0 0 0 0 0 0 0 0 0 0 0 0 0 1 2 3 3 3
0 0 0 1 1 1 0 0 0 0 0 0 0 0 0 0 0 0 0 0 0 0 0 0 0 0 0 0 0 0 0 0 0 0 0 0 0 1 2 3 3 3 3
0 0 0 1 1 1 1 0 0 0 0 0 0 0 0 0 0 0 0 0 0 0 0 0 0 0 0 0 1 1 1 0 0 0 0 0 0 1 1 2 3 3 3
1 0 0 0 0 0 0 0 0 0 0 0 0 0 0 0 0 0 0 0 0 0 0 0 0 0 1 1 2 2 1 0 0 0 0 0 0 1 1 1 2 2 2
1 0 0 0 0 0 0 0 0 0 0 0 0 0 0 0 0 0 0 0 0 0 0 0 1 1 1 2 2 1 0 0 0 0 0 0 0 1 0 0 0 0 1
1 0 0 0 0 0 0 0 0 0 0 0 0 0 0 0 0 0 0 0 0 0 0 0 1 1 1 1 1 0 0 0 0 0 0 0 1 1 0 0 0 0 0
0 0 0 0 0 0 0 0 0 0 0 0 0 0 0 0 0 0 0 0 0 0 0 0 1 1 0 0 0 0 0 0 0 0 0 1 1 1 0 0 0 0 0
0 0 0 0 0 0 0 0 0 0 0 0 0 0 0 0 0 0 0 0 0 0 0 0 0 0 0 0 0 0 0 0 0 0 0 0 0 0 0 0 0 0 0
0 0 0 0 0 0 0 0 0 0 0 0 0 0 0 0 0 0 0 0 0 0 0 0 0 0 0 0 0 0 0 0 0 0 0 0 0 0 0 0 0 0 0
0 0 0 0 0 0 0 0 0 0 0 0 0 0 0 0 0 0 0 0 0 0 0 0 0 0 0 0 0 0 0 0 0 0 0 0 0 0 0 0 0 0 0
0 0 0 0 0 0 0 0 0 0 0 0 0 0 0 0 0 0 0 0 0 0 0 0 0 0 0 0 0 0 0 0 0 0 0 0 0 0 0 0 0 0 0
0 0 0 0 0 0 0 0 0 0 0 0 0 0 0 0 0 0 0 0 0 0 0 0 0 0 0 0 0 0 0 0 0 0 0 0 0 0 0 0 0 0 0
0 0 0 0 0 0 0 0 0 0 0 0 0 0 0 0 0 0 0 0 0 0 0 0 0 0 0 0 0 0 0 0 0 0 0 0 0 0 0 0 0 0 0
0 0 0 0 0 0 0 0 0 0 0 0 0 0 0 0 0 0 0 0 0 0 0 0 0 0 0 0 0 0 0 0 0 0 0 0 0 0 0 0 0 0 0
0 0 0 0 0 0 0 0 0 0 0 0 0 0 0 0 0 0 0 0 0 0 0 0 0 0 0 0 0 0 0 0 0 0 0 0 0 0 0 0 0 0 0
0 0 0 0 0 0 0 0 0 0 0 0 0 0 0 0 0 0 0 0 0 0 0 0 0 0 0 0 0 0 0 0 0 0 0 0 0 0 0 0 0 0 0
0 0 0 0 0 0 0 0 0 0 0 0 0 0 0 0 0 0 0 0 0 0 0 0 0 0 0 0 0 0 0 0 0 0 0 0 0 0 0 0 0 0 0
0 0 0 0 0 0 0 0 0 0 0 0 0 0 0 0 0 0 0 0 0 0 0 0 0 0 0 0 0 0 0 0 0 0 0 0 0 0 0 0 0 0 0
0 0 0 0 0 0 0 0 0 0 0 0 0 0 0 0 0 0 0 0 0 0 0 0 0 0 0 0 0 0 0 0 0 0 0 0 0 0 0 0 0 0 0
0 0 0 0 0 0 0 0 0 0 0 0 0 0 0 0 0 0 0 0 0 0 0 0 0 0 0 0 0 0 0 0 0 0 0 0 0 0 0 0 0 0 0
Wind_Speed
2 2 3 5 6 7 8 9 9 9 9 10 10 10 10 10 10 10 10 10 10 10 10 9 9 9 10 10 9 8 8 8 7 8 7 7 7 7 7 7 6 4 6
1 1 3 5 6 7 8 9 9 9 9 9 10 10 10 10 10 10 10 10 10 10 10 10 9 9 10 9 8 8 7 8 8 8 7 6 6 6 6 6 6 4 7
1 2 3 6 7 7 8 9 9 9 9 9 10 10 10 10 10 10 9 9 9 9 9 10 10 10 9 9 8 8 8 8 8 8 7 3 3 5 6 6 6 7 7
3 3 3 6 8 8 8 8 9 9 9 8 9 9 9 9 9 9 9 9 9 9 8 9 9 9 9 9 9 8 8 8 8 7 4 3 2 5 6 6 6 6 6
3 3 3 7 8 8 8 8 8 8 8 8 8 8 8 8 8 8 8 8 8 8 8 8 9 9 9 9 9 8 8 8 8 6 4 3 3 4 6 6 6 6 6
3 3 3 7 7 7 8 8 8 8 8 8 8 8 8 8 8 8 8 8 8 8 8 8 9 9 9 9 9 9 9 9 7 4 4 3 2 4 6 6 6 6 5
3 3 3 6 6 7 7 8 8 8 8 8 7 7 7 7 7 7 7 7 8 8 8 8 8 9 9 9 9 9 9 9 5 4 3 3 2 5 6 6 6 6 6
3 3 3 5 6 6 6 7 7 7 7 8 7 7 7 7 7 7 7 7 8 8 8 8 8 8 8 8 8 9 9 7 5 4 3 2 3 5 6 6 6 6 6
3 3 3 3 4 5 6 6 7 7 7 8 8 8 7 7 7 7 7 7 7 7 7 7 7 8 8 8 8 8 8 8 4 3 3 2 3 5 5 5 5 5 5
3 2 2 3 4 3 3 5 6 7 7 8 8 8 8 8 7 7 7 7 7 7 7 7 8 8 9 9 9 9 8 6 4 3 2 2 4 4 4 4 4 5 5
2 2 2 2 3 3 3 4 5 6 7 7 7 8 8 5 5 5 6 7 7 7 7 8 8 9 10 9 10 9 7 3 3 3 2 3 4 5 5 4 5 5 5
1 0 1 1 2 2 2 3 3 3 4 4 4 5 4 4 4 5 7 8 8 8 8 8 9 9 7 5 6 7 3 4 3 2 2 5 4 5 5 5 4 5 5
2 1 0 1 1 2 2 2 2 2 3 3 4 4 3 3 3 4 3 4 5 6 4 6 6 4 4 4 4 4 4 4 3 3 3 6 6 6 6 5 5 5 5
2 2 1 1 1 1 1 2 2 2 2 2 3 3 3 2 3 3 3 3 3 2 3 3 3 4 5 5 4 5 5 4 3 3 4 8 7 6 6 6 5 5 5
2 2 1 1 2 1 2 1 2 2 2 2 2 3 3 2 2 2 2 3 3 2 2 2 3 4 4 4 4 5 5 4 4 4 3 8 8 8 6 6 5 4 4
3 2 2 2 2 2 2 1 1 1 2 2 2 2 3 2 2 2 2 3 3 2 2 2 2 3 3 3 4 4 4 4 4 4 4 5 8 8 7 6 5 5 4
3 2 3 3 3 3 2 2 2 1 2 2 2 2 2 2 2 2 2 2 2 2 2 2 3 3 3 4 4 4 4 4 4 4 4 4 4 7 8 7 6 5 4
3 3 2 3 3 3 2 2 2 2 2 2 1 2 2 2 2 2 2 2 2 2 2 2 2 3 3 3 3 3 3 4 5 4 4 4 4 4 6 8 6 6 4
4 4 3 3 4 3 2 2 2 2 2 2 2 2 2 2 2 2 2 1 2 2 2 2 2 2 3 3 3 3 3 3 4 4 4 5 4 4 4 6 8 6 5
3 4 4 3 3 3 3 3 2 3 2 2 2 2 2 2 2 2 2 2 2 2 2 2 2 2 2 2 3 4 3 3 3 4 4 4 4 5 5 5 4 6 7
3 4 4 4 3 3 2 2 1 1 1 1 2 2 2 2 2 2 2 2 2 2 2 2 2 3 2 1 3 3 3 3 4 3 3 3 4 4 4 4 4 3 4
4 4 4 4 4 3 2 2 1 1 1 1 1 2 2 2 2 2 2 2 2 2 2 2 2 2 1 2 2 2 2 3 4 4 3 3 4 4 4 5 4 4 3
5 5 5 4 4 3 3 3 3 2 2 2 2 2 2 2 2 2 2 2 1 1 1 1 1 2 1 1 1 2 2 1 1 3 3 3 4 3 3 3 4 4 4
5 4 4 4 4 3 4 4 4 3 2 1 0 0 1 2 2 2 2 2 1 1 1 1 1 1 2 1 1 2 1 2 2 1 2 2 3 3 3 3 4 3 3
5 5 4 4 3 3 3 4 4 2 2 1 1 1 1 2 2 2 1 1 1 1 1 1 1 1 1 1 1 1 1 2 1 2 1 2 3 2 2 3 2 2 3
4 4 4 4 3 3 3 3 4 4 3 3 1 1 1 1 1 2 1 1 1 1 1 1 1 1 1 1 1 1 1 1 1 2 1 1 2 2 2 2 2 2 2
Wind_Direction
314 314 0 43 59 62 67 72 74 75 78 78 78 78 76 78 79 80 81 81 81 79 76 79 86 93 95 96 96 94 92 91 99 101 103 108 111 111 110 109 106 108 113
250 339 33 54 62 66 70 75 76 75 77 78 79 78 76 76 77 78 79 80 80 78 75 73 79 86 87 88 90 91 91 86 86 91 90 91 101 106 107 111 110 107 107
70 42 49 58 68 74 75 79 79 78 78 77 78 77 75 74 75 76 76 78 78 77 75 73 77 82 82 81 82 84 87 83 80 77 71 57 79 100 107 112 109 105 105
83 59 62 69 70 73 76 79 80 80 80 80 78 76 72 71 73 73 73 74 76 76 76 75 76 78 77 76 76 76 79 78 75 71 57 47 57 96 108 111 110 107 107
71 56 57 72 71 73 74 75 77 79 81 81 76 75 73 69 69 71 71 71 74 77 76 76 76 74 72 73 71 71 75 76 71 64 55 48 49 90 103 109 110 109 107
68 53 56 73 71 72 73 74 74 75 77 77 75 74 72 70 68 68 68 68 71 76 76 73 74 74 73 72 69 72 75 74 66 58 52 52 55 89 100 107 112 111 107
78 50 53 72 71 72 72 73 75 72 71 70 69 68 67 68 66 64 65 67 70 74 74 72 71 73 73 71 70 71 72 72 64 57 50 48 70 94 99 105 106 106 106
93 61 47 65 71 73 72 71 72 71 67 66 64 62 61 61 62 60 61 67 69 71 71 70 69 70 73 72 70 69 68 67 62 59 51 41 79 88 95 103 107 105 106
79 65 37 30 44 59 65 69 71 70 65 63 62 58 55 57 60 59 59 65 67 69 69 67 68 73 72 71 71 71 67 64 55 46 52 36 81 90 92 96 103 107 105
68 56 38 29 30 28 34 59 66 67 63 58 55 51 49 47 47 52 52 59 61 63 65 67 68 71 70 69 70 71 66 56 46 37 27 46 77 85 94 102 106 106 104
69 40 39 34 28 24 27 45 52 55 51 50 44 46 46 31 27 32 44 51 55 56 58 63 69 67 64 62 62 61 58 46 44 30 21 51 74 80 87 93 104 108 104
146 11 53 48 35 31 36 41 35 42 42 45 42 38 36 32 28 32 32 45 48 49 51 57 61 60 56 49 50 50 43 40 40 23 26 51 63 71 74 80 92 109 106
193 197 144 111 61 53 43 46 39 39 41 39 42 39 40 37 29 28 25 26 28 38 38 45 48 48 51 49 48 46 42 41 32 24 30 50 56 65 67 71 78 92 98
161 192 187 140 99 69 65 58 52 49 46 38 34 43 49 44 34 26 27 21 26 29 38 41 50 50 53 50 52 54 49 44 35 27 31 44 50 55 62 65 77 86 94
167 174 176 143 116 80 70 61 61 53 57 51 45 47 59 60 45 35 28 28 26 31 44 45 50 57 55 49 48 52 47 43 37 33 25 38 42 45 51 57 71 84 90
181 173 149 127 118 97 82 74 72 63 61 57 47 44 57 67 59 48 41 36 29 27 44 61 66 65 57 53 48 45 41 38 38 34 26 28 34 37 40 46 55 72 87
180 159 149 137 107 99 93 84 78 70 67 60 48 47 57 62 61 59 55 42 22 27 49 65 66 66 62 56 47 40 40 36 39 36 29 25 22 29 34 38 46 53 62
158 147 153 138 114 109 105 94 81 70 71 62 58 56 65 74 75 72 66 44 27 42 52 69 70 70 60 57 50 38 39 36 37 36 34 28 22 19 23 26 34 43 44
165 153 140 124 123 124 109 90 79 72 66 57 54 51 55 66 74 77 72 51 47 57 54 72 68 82 83 67 60 47 39 36 30 33 33 29 26 23 18 16 21 27 34
162 149 139 131 123 118 100 80 66 60 50 48 50 46 57 63 73 73 68 54 56 69 57 64 78 68 87 85 71 54 37 35 34 34 29 27 28 25 22 19 14 16 27
151 147 149 142 140 129 110 106 94 71 37 31 34 36 43 61 76 82 77 66 60 74 77 85 90 83 65 63 73 45 26 32 37 30 26 28 25 20 23 22 18 18 15
171 165 158 158 157 157 143 131 122 117 93 64 29 34 31 50 67 90 93 85 71 76 66 73 84 87 49 42 91 88 25 3 13 21 20 28 19 14 20 19 20 20 16
178 176 173 173 166 159 132 108 87 64 46 34 22 11 4 27 51 75 94 93 81 98 122 117 98 104 116 32 53 118 132 210 330 352 11 18 13 15 7 8 19 15 15
190 174 166 167 163 153 139 138 140 142 151 197 207 327 5 28 45 63 85 93 103 108 129 147 105 109 127 128 37 46 105 149 146 335 342 357 5 11 4 6 7 7 12
178 165 164 157 156 150 147 151 145 135 144 122 87 65 35 23 32 43 71 83 101 116 133 104 94 84 104 137 146 119 78 65 103 142 280 326 347 349 355 351 352 357 5
161 156 155 154 160 156 151 150 153 151 143 128 119 111 40 19 13 22 47 57 86 107 120 122 108 101 87 110 120 139 155 154 168 149 178 277 315 319 332 341 348 345 353